Tracking 19281 objects as of 16-Nov-2018
HD Live streaming from Space Station
objects crossing your sky now

GLOBALSTAR M062

Track GLOBALSTAR M062 now!
10-day predictions
GLOBALSTAR M062 is classified as:


NORAD ID: 26082
Int'l Code: 2000-008B
Perigee: 1,494.2 km
Apogee: 1,504.9 km
Inclination: 52.0 °
Period: 115.8 minutes
Semi major axis: 7870 km
RCS: 2.6606 m2 (large)
Launch date: February 8, 2000
Source: Globalstar (GLOB)
Launch site: AIR FORCE EASTERN TEST RANGE (AFETR)
aabbcc
Your satellite tracking list
Your tracking list is empty




NASA's NSSDC Master Catalog

Two Line Element Set (TLE):
1 26082U 00008B   18320.45680046 -.00000081 +00000-0 +11983-3 0  9998
2 26082 051.9855 326.4557 0006848 015.4003 136.4887 12.43355486197807
Source of the keplerian elements: AFSPC